Regional Weather Roundup
Issued by NWS

Home | Current Version | Previous Version | Text Only | Print | Product List | Glossary On
Versions: 1 2 3 4 5 6 7 8 9 10 11 12 13 14 15 16 17 18 19 20 21 22 23 24 25 26 27 28 29 30 31 32 33 34 35 36 37 38 39 40 41 42 43 44 45 46 47 48
000
ASUS42 KTBW 310315
RWRFL
FLORIDA REGIONAL WEATHER ROUNDUP
NATIONAL WEATHER SERVICE TAMPA BAY RUSKIN FL
1100 PM EDT SUN AUG 30 2015

NOTE: "FAIR" INDICATES FEW OR NO CLOUDS BELOW 12,000 FEET WITH NO
SIGNIFICANT WEATHER AND/OR OBSTRUCTIONS TO VISIBILITY.


FLZ001>010-012>015-112-114-115-310400-
PANHANDLE FLORIDA

CITY           SKY/WX    TMP DP  RH WIND       PRES   REMARKS
PENSACOLA      MOCLDY    78  71  79 CALM      30.02R
PENSACOLA NAS  PTCLDY    74  71  91 CALM      30.02R
MILTON NAS     MOCLDY    76  72  87 CALM      30.03
CRESTVIEW      CLEAR     74  72  93 CALM      30.04S
VALPARAISO     PTCLDY    82  71  68 CALM      30.01S
MARY ESTHER    MOCLDY    78  73  82 CALM      30.01R
TRI COUNTY     FAIR      73  71  93 CALM      30.03S
PANAMA CITY    FAIR      77  69  76 CALM      30.01R
TYNDALL AFB    CLEAR     77  73  87 CALM      30.01R
APALACHICOLA   CLEAR     73  72  96 N3        30.00R

STATION/POSITION SKY/WX   TEMP    WIND        PRES    WAVE   SWELL
                          AIR SEA DIR/SP/G            HT/PER HT/PER
                          (F)     (DEG/KT/KT) (MB)    (FT/S) (FT/S)
30.1N   87.6W              83 85   CALM  /  2 1016.1R   1
29.2N   88.2W              82 87   50/  2/  4 1017.0R   1/ 5   2/ 5
28.8N   86.0W              84 86   50/  6/  8 1016.5R   1/ 4   2/ 4
PANAMA CITY BEAC NOT AVBL
CAPE SAN BLAS    NOT AVBL
TOWER C                    84     310/  2/  3 1016.1R
28.5N   84.5W              85 86   40/  6/  8 1015.8R   1/ 5

$$
FLZ011-016>038-118-127-128-134-139-239-310400-
NORTH FLORIDA

CITY           SKY/WX    TMP DP  RH WIND       PRES   REMARKS
MARIANNA       CLEAR     75  72  90 CALM      30.01S
TALLAHASSEE    PTCLDY    81  69  67 CALM      30.01R
PERRY          MOCLDY   N/A N/A N/A CALM      30.02S
CROSS CITY       N/A     77  74  90 E3        30.01R
LAKE CITY      FAIR      72  72 100 CALM      30.02S
GAINESVILLE    CLOUDY    74  72  93 NE3       30.02S
MAYPORT NAS    CLOUDY    79  75  87 SE10      30.01F
JACKSONVILLE   CLOUDY    75  74  96 CALM      30.01S
JAX NAS        CLOUDY    81  74  79 SE9       30.01S
JAX CRAIG      CLOUDY    77  74  90 E5        30.01R
JAX CECIL      MOCLDY    73  73 100 CALM      30.02R
FERNANDINA BEA FAIR      81  73  78 SE8       30.00S
ST AUGUSTINE   CLOUDY    78  76  93 SE7       30.02S

STATION/POSITION SKY/WX   TEMP    WIND        PRES    WAVE   SWELL
                          AIR SEA DIR/SP/G            HT/PER HT/PER
                          (F)     (DEG/KT/KT) (MB)    (FT/S) (FT/S)
SHELL POINT                82      10/  4/  5   N/A
KEATON BEACH               76      60/  4/  5 1016.4R
CEDAR KEY                  78      80/  6/  7 1016.4F
FERNANDINA       NOT AVBL
30.7N   81.3W                 85                N/A     5/11   2/11
MAYPORT          NOT AVBL
31.4N   80.9W              80 84  160/ 14/ 17 1016.6F   5/11   3/11
ST AUGUSTINE               80 84  110/  6/  6 1017.1S

$$
FLZ040-043>046-052-053-057-058-063-144-310400-
INTERIOR CENTRAL FLORIDA

CITY           SKY/WX    TMP DP  RH WIND       PRES   REMARKS
OCALA          CLOUDY    75  73  94 CALM      30.01S
THE VILLAGES     N/A     77  75  94 E5        29.92S
LEESBURG       CLOUDY    77  74  90 SE3       30.03F
SANFORD        CLOUDY    78  75  90 SE7       30.03S
ORLANDO EXEC   CLOUDY    78  76  93 E5        30.03S
ORLANDO INTL   LGT RAIN  78  77  96 SE6       30.04R
WINTER HAVEN   CLOUDY    78  74  87 S9        30.04S
LAKELAND       CLOUDY    77  73  88 SE3       30.03S
BARTOW         MOCLDY    75  75 100 CALM      30.04S
OKEECHOBEE     CLOUDY    73  73 100 CALM      30.04S

$$
FLZ041-047-054-059-064-141-147-310400-
EAST CENTRAL FLORIDA

CITY           SKY/WX    TMP DP  RH WIND       PRES   REMARKS
DAYTONA BEACH  CLOUDY    78  75  90 SE3       30.01F
DELAND           N/A     77  77 100 SE3       30.02F
JFK SPACE CTR  LGT RAIN  77  73  88 S7        30.03R
CAPE CANAVERAL CLOUDY    78  74  89 SW8       30.03S
PATRICK AFB    CLOUDY    78  76  93 S6        30.04S
MELBOURNE      CLOUDY    76  75  97 S5        30.04S
VERO BEACH     CLOUDY    78  74  87 CALM      30.04F
FT PIERCE      MOCLDY    78  74  87 CALM      30.04S

STATION/POSITION SKY/WX   TEMP    WIND        PRES    WAVE   SWELL
                          AIR SEA DIR/SP/G            HT/PER HT/PER
                          (F)     (DEG/KT/KT) (MB)    (FT/S) (FT/S)
28.5N   80.2W              81 82  170/ 14/ 17 1017.4R
28.9N   78.5W              85 86  150/ 14/ 16 1018.0F
TRIDENT PIER     NOT AVBL
28.4N   80.5W                 85                N/A     5/10   2/11
27.5N   80.2W                 84                N/A     4/12   2/12

$$
FLZ050-056-061-142-242-148-248-149-249-151-251-155-255-
160-260-310400-
WEST CENTRAL FLORIDA

CITY           SKY/WX    TMP DP  RH WIND       PRES   REMARKS
CRYSTAL RIVER  FAIR      77  75  94 CALM      30.01S
INVERNESS      FAIR      77  77 100 CALM      30.01F
BROOKSVILLE    CLOUDY    78  75  90 E6        30.02S
CLEARWATER     LGT RAIN  76  74  93 SE8       30.01R
TAMPA INTL     LGT RAIN  78  75  90 CALM      30.01F
TAMPA EXEC     HVY RAIN  79  73  83 E5        30.02S
PLANT CITY     CLOUDY    79  77  94 CALM      30.04S
MACDILL AFB    CLOUDY    74  74 100 SW1       30.01S
PETER O KNIGHT CLOUDY    79  77  94 E5        30.01F
ST PETERSBURG  LGT RAIN  80  74  81 E10       30.00R
SARASOTA       CLOUDY    78  75  90 E7        30.00S
VENICE         CLOUDY    77  75  94 E10       30.01F

STATION/POSITION SKY/WX   TEMP    WIND        PRES    WAVE   SWELL
                          AIR SEA DIR/SP/G            HT/PER HT/PER
                          (F)     (DEG/KT/KT) (MB)    (FT/S) (FT/S)
CEDAR KEY                  78      80/  6/  7 1016.4F
28.5N   84.5W              85 86   40/  6/  8 1015.8R   1/ 5
27.3N   84.2W                 87                N/A     2/ 3
CLEARWATER BEACH NOT AVBL
MIDDLE TAMPA BAY NOT AVBL
VENICE                     78 87  100/  7/  8 1015.6F

$$
FLZ066-069-070-075>078-162-262-165-265-310400-
SOUTHWEST FLORIDA AND KEYS

CITY           SKY/WX    TMP DP  RH WIND       PRES   REMARKS
PUNTA GORDA    LGT RAIN  77  77 100 CALM      30.03S
FT MYERS       LGT RAIN  75  74  96 E3        30.01R
SOUTHWEST INTL LGT RAIN  77  74  90 E3        30.02R
NAPLES         LGT RAIN  77  74  90 E3        30.00R
MARATHON       PTCLDY    81  76  84 S7        30.01R
KEY WEST NAS   CLOUDY    81  74  79 S12       30.00R
KEY WEST INTL  MOCLDY    83  75  77 S12       30.00R

STATION/POSITION SKY/WX   TEMP    WIND        PRES    WAVE   SWELL
                          AIR SEA DIR/SP/G            HT/PER HT/PER
                          (F)     (DEG/KT/KT) (MB)    (FT/S) (FT/S)
VENICE                     78 87  100/  7/  8 1015.6F
NAPLES           NOT AVBL
26.0N   85.6W              85 87   40/ 14/ 16 1015.0R   3/ 6   2/17
DRY TORTUGAS                                    N/A
NW FL BAY                  84     180/  9/ 12 1015.8
SAND KEY                   83     180/ 11     1015.6R
LONG KEY                   78 85   CALM  /  1 1017.4R
MOLASSES REEF              83 87  170/  9/ 10 1016.7R

$$
FLZ067-068-071>074-168-172>174-310400-
SOUTHEAST FLORIDA

CITY           SKY/WX    TMP DP  RH WIND       PRES   REMARKS
W PALM BEACH   CLOUDY    80  74  81 S5        30.04R
FT LAUDER-EXEC MOCLDY    81  74  79 SE6       30.03R
FT LAUDERDALE  MOCLDY    79  75  87 SE5       30.02S
POMPANO BEACH  MOCLDY    82  74  76 SE9       30.03R
PEMBROKE PINES MOCLDY    80  74  81 SE3       30.04R
OPA LOCKA      MOCLDY    80  74  81 SE3       30.03R
MIAMI          MOCLDY    81  76  84 SE5       30.03S
WEST KENDALL   MOCLDY    79  75  87 SE3         N/A
HOMESTEAD      MOCLDY    80  74  84 SE5       30.03R

STATION/POSITION SKY/WX   TEMP    WIND        PRES    WAVE   SWELL
                          AIR SEA DIR/SP/G            HT/PER HT/PER
                          (F)     (DEG/KT/KT) (MB)    (FT/S) (FT/S)
PORT EVERGLADES            82     150/  7/  9 1016.8R
SETTLEMENT POINT           79      90/ 11/ 13 1019.0R

$$



USA.gov is the U.S. government's official web portal to all federal, state and local government web resources and services.